Location: Corona
(40.7470°N, 73.8601°W)
Time: 20:25:26
(UTC+00:00)

Okean 1 Rocket - Pass Details

Date: 22 September 2019
Orbit: 608 x 633 km, 82.5° (Epoch: 21 October)

Event Time Altitude Azimuth Distance (km) Brightness Sun altitude
Rises 23:18:47 0° 177° (S) 2,852 6.4 -5.7°
Reaches altitude 10° 23:21:00 10° 174° (S) 1,955 5.5 -6.1°
Maximum altitude 23:25:15 60° 94° (E) 703 3.1 -6.9°
Drops below altitude 10° 23:29:34 10° 15° (NNE) 1,981 5.6 -7.7°
Sets 23:31:49 0° 12° (NNE) 2,894 6.5 -8.2°
